QPF
0.00 0.00 0.00 0.00 0.00 0.00 0.00 0.00 0.00 0.00 0.00 0.00 0.00 0.00 0.00 0.02 0.05 0.06 0.05 0.05 0.12 0.11 0.08 0.06 0.04 0.03 0.04 0.01 0.03 0.02 0.00 0.00 0.00
0.00 0.00 0.00 0.00 0.00 0.00 0.00 0.00 0.00 0.00 0.00 0.00 0.00 0.00 0.00 0.00 0.01 0.03 0.01 0.01 0.12 0.06 0.08 0.06 0.05 0.03 0.04 0.03 0.04 0.03 0.01 0.00 0.00
0.00 0.00 0.00 0.00 0.00 0.00 0.00 0.00 0.00 0.00 0.00 0.00 0.00 0.00 0.00 0.00 0.00 0.00 0.00 0.00 0.04 0.01 0.02 0.04 0.00 0.00 0.01 0.01 0.05 0.04 0.05 0.01 0.00
0.00 0.00 0.00 0.00 0.00 0.00 0.00 0.00 0.00 0.00 0.00 0.00 0.00 0.00 0.00 0.00 0.00 0.00 0.00 0.01 0.03 0.09 0.06 0.01 0.00 0.00 0.00 0.01 0.06 0.03 0.03 0.06 0.01
0.00 0.00 0.00 0.00 0.00 0.00 0.00 0.00 0.00 0.00 0.00 0.00 0.00 0.00 0.00 0.00 0.00 0.00 0.00 0.05 0.03 0.06 0.07 0.09 0.00 0.00 0.00 0.00 0.00 0.00 0.03 0.11 0.01
0.00 0.00 0.00 0.00 0.00 0.00 0.00 0.00 0.00 0.00 0.00 0.00 0.00 0.00 0.00 0.00 0.00 0.00 0.00 0.00 0.01 0.00 0.00 0.01 0.00 0.00 0.00 0.00 0.00 0.00 0.07 0.14 0.03
0.00 0.00 0.00 0.00 0.00 0.00 0.00 0.00 0.00 0.00 0.00 0.00 0.00 0.00 0.00 0.00 0.00 0.01 0.00 0.00 0.00 0.00 0.00 0.00 0.00 0.00 0.00 0.00 0.00 0.00 0.07 0.12 0.12
0.00 0.00 0.00 0.02 0.01 0.00 0.00 0.00 0.01 0.00 0.00 0.00 0.00 0.00 0.00 0.01 0.05 0.08 0.09 0.04 0.02 0.00 0.00 0.00 0.00 0.00 0.00 0.00 0.01 0.00 0.01 0.02 0.04
0.00 0.00 0.00 0.05 0.11 0.04 0.02 0.00 0.01 0.04 0.01 0.00 0.00 0.01 0.04 0.12 0.16 0.13 0.12 0.06 0.07 0.03 0.01 0.00 0.00 0.00 0.00 0.00 0.00 0.00 0.01 0.00 0.00
0.00 0.00 0.00 0.01 0.04 0.02 0.03 0.05 0.01 0.03 0.03 0.00 0.00 0.01 0.01 0.05 0.10 0.09 0.09 0.09 0.09 0.08 0.05 0.01 0.00 0.01 0.00 0.00 0.00 0.00 0.00 0.00 0.00
0.03 0.01 0.01 0.01 0.02 0.03 0.10 0.05 0.02 0.01 0.01 0.01 0.01 0.02 0.02 0.00 0.03 0.06 0.05 0.02 0.01 0.02 0.01 0.00 0.03 0.03 0.02 0.01 0.00 0.00 0.00 0.00 0.00
0.06 0.06 0.14 0.14 0.04 0.06 0.04 0.03 0.02 0.00 0.00 0.00 0.00 0.00 0.00 0.01 0.02 0.05 0.03 0.02 0.01 0.01 0.01 0.05 0.07 0.03 0.00 0.00 0.00 0.00 0.00 0.00 0.00
0.06 0.07 0.10 0.15 0.04 0.01 0.11 0.18 0.06 0.01 0.00 0.00 0.00 0.02 0.07 0.03 0.03 0.03 0.03 0.02 0.02 0.03 0.04 0.05 0.05 0.08 0.07 0.06 0.03 0.01 0.00 0.00 0.00
0.00 0.00 0.00 0.01 0.01 0.00 0.01 0.08 0.09 0.01 0.03 0.05 0.02 0.08 0.06 0.04 0.04 0.04 0.05 0.06 0.05 0.04 0.05 0.04 0.08 0.09 0.04 0.04 0.02 0.02 0.01 0.00 0.00
0.00 0.00 0.00 0.00 0.00 0.00 0.00 0.02 0.09 0.02 0.05 0.09 0.03 0.03 0.03 0.02 0.02 0.00 0.02 0.02 0.04 0.03 0.05 0.04 0.03 0.03 0.04 0.02 0.02 0.01 0.01 0.01 0.00
0.00 0.00 0.00 0.00 0.00 0.00 0.00 0.01 0.01 0.01 0.05 0.08 0.05 0.09 0.09 0.06 0.04 0.00 0.00 0.00 0.01 0.01 0.02 0.04 0.05 0.03 0.04 0.04 0.04 0.03 0.01 0.00 0.00
0.00 0.00 0.00 0.00 0.00 0.00 0.00 0.00 0.01 0.03 0.02 0.00 0.01 0.01 0.00 0.01 0.01 0.00 0.00 0.00 0.01 0.04 0.07 0.12 0.08 0.07 0.04 0.02 0.01 0.00 0.00 0.00 0.00
0.00 0.00 0.00 0.00 0.00 0.00 0.00 0.00 0.00 0.00 0.00 0.00 0.00 0.00 0.00 0.00 0.00 0.00 0.00 0.00 0.01 0.02 0.04 0.06 0.08 0.09 0.07 0.02 0.01 0.00 0.00 0.00 0.00
0.00 0.00 0.00 0.00 0.00 0.00 0.00 0.00 0.00 0.00 0.00 0.00 0.00 0.00 0.00 0.00 0.00 0.00 0.00 0.00 0.00 0.00 0.01 0.02 0.01 0.02 0.01 0.00 0.00 0.00 0.00 0.00 0.00
0.00 0.00 0.00 0.00 0.00 0.00 0.00 0.00 0.00 0.00 0.00 0.00 0.00 0.00 0.00 0.00 0.00 0.00 0.00 0.00 0.00 0.00 0.00 0.00 0.00 0.00 0.00 0.00 0.00 0.00 0.00 0.00 0.00
MSLP
1007.13 1007.17 1007.58 1008.13 1008.86 1010.00 1010.99 1011.85 1013.00 1013.88 1014.74 1015.53 1016.08 1016.56 1017.12 1017.64 1017.97 1018.40 1018.36 1018.49 1018.88 1018.88 1018.94 1018.94 1018.94 1019.01 1019.16 1019.28 1019.39 1019.48 1019.68 1019.66 1019.60
1006.66 1006.84 1007.22 1007.47 1008.31 1009.48 1010.61 1011.54 1012.42 1013.33 1014.21 1015.10 1015.65 1016.06 1016.66 1017.16 1017.66 1018.05 1017.68 1017.94 1018.62 1018.66 1018.88 1018.98 1018.77 1018.82 1018.93 1018.96 1019.08 1019.28 1019.38 1019.42 1019.43
1006.92 1006.91 1007.12 1007.33 1008.02 1009.00 1010.19 1011.26 1012.05 1012.89 1013.76 1014.54 1015.19 1015.62 1016.12 1016.59 1016.98 1017.42 1017.66 1017.91 1018.23 1018.04 1018.06 1018.40 1018.46 1018.59 1018.70 1018.80 1018.87 1019.02 1019.36 1019.06 1019.22
1006.74 1007.43 1007.77 1007.71 1008.14 1008.87 1009.86 1010.96 1011.66 1012.45 1013.27 1014.06 1014.74 1015.22 1015.59 1016.05 1016.44 1016.84 1017.28 1017.50 1017.68 1017.91 1018.15 1018.10 1018.29 1018.46 1018.54 1018.58 1018.83 1018.80 1019.11 1019.14 1019.13
1007.12 1007.84 1008.31 1008.82 1008.64 1009.18 1009.84 1010.63 1011.36 1012.19 1012.83 1013.53 1014.21 1014.78 1015.34 1015.85 1016.20 1016.50 1016.78 1017.20 1017.37 1017.76 1017.91 1017.89 1018.08 1018.24 1018.44 1018.50 1018.54 1018.62 1018.76 1019.14 1018.68
1007.28 1007.51 1008.60 1009.60 1009.81 1010.11 1010.86 1011.22 1011.32 1011.82 1012.53 1013.18 1013.76 1014.52 1015.06 1015.49 1015.86 1016.26 1016.46 1016.72 1016.97 1017.44 1017.61 1017.80 1017.71 1018.04 1018.26 1018.34 1018.44 1018.56 1018.64 1018.87 1018.66
1007.62 1008.37 1008.89 1009.82 1010.32 1010.48 1011.26 1011.69 1011.93 1011.94 1012.33 1012.96 1013.50 1014.11 1014.62 1015.00 1015.36 1015.69 1016.16 1016.51 1016.88 1017.09 1017.35 1017.49 1017.63 1017.82 1017.95 1018.16 1018.29 1018.32 1018.40 1018.55 1018.54
1007.64 1008.05 1008.55 1009.68 1010.28 1010.79 1011.48 1011.82 1012.10 1012.31 1012.62 1013.05 1013.46 1013.86 1014.32 1014.56 1014.90 1015.30 1015.92 1016.29 1016.66 1016.96 1017.19 1017.34 1017.61 1017.75 1017.86 1018.00 1018.09 1018.13 1018.53 1018.49 1018.48
1007.89 1008.19 1008.42 1008.94 1009.98 1010.92 1011.66 1011.84 1012.24 1012.73 1012.88 1013.39 1014.00 1014.05 1014.48 1014.41 1015.05 1015.38 1015.68 1016.03 1016.53 1016.89 1017.16 1017.34 1017.50 1017.60 1017.77 1018.12 1018.24 1018.96 1019.41 1019.12 1018.70
1008.13 1008.44 1008.86 1009.28 1010.01 1010.88 1011.57 1012.24 1012.69 1013.24 1013.44 1013.68 1014.11 1014.36 1014.64 1014.94 1015.10 1015.20 1015.53 1015.95 1016.49 1016.92 1017.40 1017.58 1017.70 1017.72 1018.11 1018.52 1019.00 1019.06 1019.30 1019.10 1018.80
1010.24 1010.42 1010.38 1010.34 1010.35 1011.03 1011.92 1012.52 1012.92 1013.72 1014.23 1014.04 1013.88 1014.42 1014.76 1015.05 1015.66 1015.38 1015.76 1016.42 1016.73 1017.13 1017.49 1017.86 1018.11 1018.19 1018.32 1018.78 1019.31 1019.31 1019.14 1019.03 1018.89
1011.87 1011.90 1012.03 1011.79 1011.62 1011.96 1012.26 1012.49 1012.85 1013.35 1014.13 1014.13 1014.62 1014.83 1015.12 1015.29 1015.80 1015.71 1015.98 1016.52 1016.66 1016.85 1017.20 1017.68 1018.34 1018.83 1018.98 1019.42 1019.82 1019.60 1019.45 1019.26 1019.00
1013.20 1012.65 1012.96 1013.05 1013.08 1012.89 1012.82 1012.97 1013.07 1013.33 1013.81 1014.20 1014.78 1014.60 1014.82 1015.36 1015.54 1015.60 1015.93 1016.14 1015.72 1016.87 1016.82 1017.54 1018.45 1019.17 1019.50 1019.54 1019.69 1020.04 1019.89 1019.30 1018.80
1013.85 1013.71 1013.76 1013.78 1013.80 1013.68 1013.83 1013.85 1013.68 1013.64 1013.94 1014.38 1014.91 1015.04 1015.49 1016.00 1016.10 1016.15 1015.97 1016.13 1016.69 1016.97 1017.69 1018.15 1018.76 1019.30 1019.76 1019.96 1020.17 1020.40 1020.40 1019.81 1019.29
1014.24 1014.15 1014.24 1014.33 1014.35 1014.34 1014.80 1014.77 1014.73 1014.90 1014.98 1015.33 1015.37 1015.71 1016.07 1016.44 1016.38 1016.73 1016.74 1016.75 1017.30 1017.82 1018.06 1018.62 1019.34 1019.25 1020.04 1020.45 1020.68 1020.96 1021.00 1020.28 1019.92
1014.34 1014.64 1014.77 1014.99 1014.96 1015.19 1015.65 1015.72 1015.61 1015.48 1016.14 1015.97 1016.10 1016.28 1016.72 1016.80 1017.10 1017.36 1017.45 1017.46 1017.67 1017.73 1018.56 1018.95 1019.76 1020.31 1020.35 1021.01 1021.34 1021.18 1020.82 1020.68 1020.46
1014.39 1014.74 1014.96 1015.14 1015.08 1015.68 1016.36 1016.35 1016.22 1016.54 1016.84 1016.76 1016.90 1017.10 1017.43 1017.93 1017.97 1018.00 1018.33 1018.38 1018.54 1018.80 1018.87 1019.56 1020.24 1020.53 1020.72 1020.92 1021.00 1020.90 1020.93 1020.87 1020.58
1014.32 1014.77 1014.99 1015.33 1015.58 1016.33 1016.87 1017.22 1017.07 1017.04 1017.08 1017.09 1017.31 1017.56 1017.91 1018.33 1018.56 1018.81 1019.04 1019.42 1019.69 1019.70 1020.42 1020.30 1020.52 1020.52 1020.75 1020.95 1021.07 1020.93 1021.09 1021.06 1020.94
1014.33 1014.74 1015.33 1015.78 1016.20 1016.51 1016.72 1017.17 1017.10 1017.05 1017.19 1017.03 1017.20 1017.34 1017.63 1018.31 1018.57 1018.94 1019.15 1019.11 1019.64 1020.19 1020.60 1020.74 1020.89 1021.00 1020.88 1021.14 1021.12 1021.47 1021.59 1021.54 1021.58
1014.77 1015.04 1015.51 1015.92 1016.29 1016.48 1016.70 1016.98 1017.30 1017.72 1017.56 1017.40 1017.44 1017.64 1017.99 1018.12 1017.81 1017.84 1018.26 1018.37 1018.70 1019.16 1020.39 1020.69 1020.71 1020.85 1020.96 1021.17 1021.20 1021.66 1022.02 1021.90 1021.77
Thickness
5785 5791 5797 5797 5799 5796 5793 5791 5786 5784 5779 5774 5774 5774 5772 5772 5770 5767 5769 5770 5768 5769 5770 5772 5773 5775 5775 5775 5775 5774 5774 5775 5777
5782 5790 5794 5799 5800 5797 5792 5790 5789 5785 5781 5776 5776 5775 5774 5773 5771 5769 5773 5774 5769 5771 5771 5771 5774 5775 5776 5776 5776 5775 5774 5776 5776
5770 5782 5790 5797 5798 5796 5793 5790 5789 5787 5783 5778 5777 5778 5776 5775 5774 5773 5773 5773 5771 5775 5777 5774 5776 5776 5776 5776 5776 5775 5773 5777 5777
5766 5768 5776 5789 5793 5794 5791 5788 5787 5786 5783 5778 5776 5777 5778 5776 5775 5775 5774 5774 5775 5774 5773 5774 5774 5775 5775 5776 5775 5775 5773 5773 5774
5761 5761 5768 5772 5784 5784 5785 5785 5784 5782 5782 5779 5776 5777 5776 5775 5775 5774 5774 5772 5774 5773 5771 5772 5772 5773 5773 5773 5774 5775 5774 5770 5775
5755 5764 5764 5759 5765 5773 5771 5771 5779 5779 5779 5776 5776 5774 5773 5773 5773 5772 5772 5773 5774 5772 5771 5770 5771 5770 5769 5770 5771 5771 5772 5770 5772
5749 5750 5754 5751 5752 5761 5763 5765 5766 5772 5774 5773 5772 5771 5771 5770 5771 5772 5771 5772 5771 5770 5769 5768 5768 5768 5768 5768 5768 5769 5770 5768 5768
5749 5749 5750 5745 5744 5748 5753 5756 5761 5765 5766 5766 5766 5767 5768 5769 5770 5771 5769 5767 5766 5766 5765 5765 5763 5762 5763 5764 5765 5767 5764 5764 5764
5746 5745 5748 5751 5745 5743 5742 5751 5753 5754 5759 5757 5756 5759 5758 5764 5763 5763 5763 5763 5760 5759 5758 5758 5759 5759 5758 5756 5757 5748 5747 5750 5756
5750 5748 5746 5745 5742 5738 5738 5740 5743 5742 5747 5751 5748 5748 5751 5753 5755 5756 5756 5756 5753 5751 5748 5749 5748 5749 5747 5745 5743 5741 5741 5744 5749
5726 5727 5732 5737 5740 5737 5730 5732 5733 5733 5735 5741 5747 5743 5743 5745 5744 5747 5748 5744 5743 5741 5739 5738 5737 5737 5736 5735 5732 5732 5736 5738 5741
5712 5716 5715 5720 5724 5723 5725 5727 5729 5730 5726 5730 5731 5732 5735 5735 5735 5738 5735 5735 5735 5735 5733 5731 5726 5723 5722 5720 5718 5721 5725 5728 5731
5695 5705 5704 5703 5706 5714 5714 5717 5721 5722 5719 5722 5720 5727 5730 5729 5730 5731 5729 5730 5730 5728 5728 5724 5717 5711 5708 5709 5710 5707 5708 5716 5721
5689 5695 5697 5698 5699 5704 5705 5707 5712 5715 5716 5714 5713 5718 5716 5714 5716 5719 5721 5722 5720 5718 5711 5709 5706 5702 5698 5698 5697 5692 5690 5698 5705
5681 5686 5690 5693 5695 5699 5698 5700 5701 5700 5702 5702 5704 5704 5704 5704 5707 5706 5707 5708 5704 5700 5698 5695 5689 5691 5685 5684 5681 5679 5679 5683 5686
5677 5679 5681 5683 5687 5688 5687 5687 5690 5694 5690 5695 5696 5697 5694 5697 5693 5691 5694 5697 5694 5694 5688 5685 5679 5675 5675 5670 5667 5669 5671 5672 5674
5672 5675 5677 5679 5684 5681 5676 5678 5680 5680 5679 5683 5684 5683 5682 5679 5680 5682 5680 5682 5682 5681 5684 5677 5669 5666 5665 5664 5662 5663 5664 5665 5669
5671 5670 5671 5673 5673 5668 5665 5663 5666 5668 5670 5673 5673 5673 5670 5668 5668 5665 5664 5664 5663 5665 5657 5660 5660 5658 5656 5654 5652 5655 5654 5654 5658
5666 5665 5663 5662 5661 5660 5662 5660 5662 5665 5665 5668 5668 5668 5668 5662 5659 5658 5657 5659 5655 5650 5648 5647 5645 5643 5644 5643 5644 5641 5640 5641 5640
5654 5657 5656 5655 5655 5656 5657 5657 5655 5652 5656 5660 5659 5658 5656 5655 5660 5661 5658 5659 5657 5654 5640 5637 5636 5635 5635 5633 5635 5629 5627 5628 5626